This is the latest recevied weather packets stored in our database for station/object WD4IXD. If no packets are shown the sender has not sent any weather packets the latest 10 day(s).
| Time | Temp. | Humidity | Pressure | Rain* | Wind** | Luminosity | Snow |
|---|---|---|---|---|---|---|---|
| 1778087704 | 1.67° C | 95% | 1020.3 hPa | 1.52 mm | - | 69 W/m² | - |
| 1778087415 | 1.67° C | 95% | 1020.2 hPa | 1.27 mm | - | 56 W/m² | - |
| 1778087104 | 1.67° C | 95% | 1020.2 hPa | 1.52 mm | - | 60 W/m² | - |
| 1778086815 | 1.11° C | 95% | 1020.1 hPa | 1.27 mm | - | 62 W/m² | - |
| 1778086503 | 1.11° C | 95% | 1020 hPa | 1.27 mm | - | 58 W/m² | - |
| 1778086204 | 1.11° C | 95% | 1020 hPa | 1.27 mm | - | 58 W/m² | - |
| 1778085904 | 1.11° C | 95% | 1019.9 hPa | 1.27 mm | - | 54 W/m² | - |
| 1778085616 | 1.11° C | 95% | 1019.8 hPa | 1.02 mm | - | 56 W/m² | - |
| 1778085304 | 1.11° C | 95% | 1019.7 hPa | 1.02 mm | - | 62 W/m² | - |
| 1778085015 | 1.11° C | 95% | 1019.7 hPa | 1.02 mm | - | 62 W/m² | - |
| 1778084704 | 1.11° C | 95% | 1019.7 hPa | 0.76 mm | - | 60 W/m² | - |
| 1778084415 | 1.11° C | 95% | 1019.8 hPa | 0.51 mm | - | 60 W/m² | - |
| 1778084104 | 1.11° C | 95% | 1019.8 hPa | 1.02 mm | - | 62 W/m² | - |
| 1778083815 | 1.11° C | 95% | 1019.7 hPa | 1.02 mm | - | 67 W/m² | - |
| 1778083504 | 1.11° C | 95% | 1019.7 hPa | 0.76 mm | - | 60 W/m² | - |
| 1778083215 | 1.11° C | 95% | 1019.5 hPa | 0.76 mm | - | 51 W/m² | - |
| 1778082904 | 1.11° C | 95% | 1019.6 hPa | 0.76 mm | - | 40 W/m² | - |
| 1778082615 | 1.11° C | 95% | 1019.6 hPa | 0.76 mm | - | 33 W/m² | - |
| 1778082304 | 1.11° C | 95% | 1019.6 hPa | 0.51 mm | - | 30 W/m² | - |
| 1778082015 | 1.11° C | 95% | 1019.7 hPa | 0.51 mm | - | 37 W/m² | - |
| 1778081704 | 1.11° C | 95% | 1019.7 hPa | 0.51 mm | - | 39 W/m² | - |
| 1778081415 | 1.11° C | 95% | 1019.6 hPa | 0.51 mm | - | 32 W/m² | - |
| 1778081104 | 1.11° C | 95% | 1019.6 hPa | 0.51 mm | - | 32 W/m² | - |
| 1778080815 | 1.11° C | 95% | 1019.5 hPa | 0.51 mm | - | 35 W/m² | - |
| 1778080504 | 1.11° C | 95% | 1019.5 hPa | 0 mm | - | 37 W/m² | - |
* Rain latest hour (hover to see other rain measurements)
** Current wind speed in m/s (hover to see current wind gust speed)